Flag for Canada Weather past 2 weeks in Halton Hills, Ontario, Canada

Now
19 °F

Passing clouds.


Feels Like: 14 °F
Forecast: 10 / 31 °F
Wind: 3 mph from Southeast

Location: Toronto Pearson International Airport

Current Time: Jan 29, 2015 at 12:08:08 AM

Latest Report: Jan 28, 2015 at 11:00 PM


Visibility: 15 mi

Pressure: 30.28 "Hg

Humidity: 58%

Dew point: 7 °F

Location of Halton HillsLocation

Historic Weather in Halton Hills — Graph

°F

Halton Hills temperature yesterday

Maximum temperature yesterday: 28 °F (at 2:00 PM)
Minimum temperature yesterday: 9 °F (at 1:00 AM)
Average temperature yesterday: 18 °F

Past Weeks' High & Low Weather Summary

 TemperatureHumidityPressure
High43 °F (Jan 18, 4:00 AM)93% (Jan 18, 9:00 AM)30.62 "Hg (Jan 18, 9:00 AM)
Low3 °F (Jan 14, 4:00 AM)29% (Jan 28, 3:00 PM)29.48 "Hg (Jan 24, 4:00 PM)
Average20 °F70%30.04 "Hg
* Reported Jan 13 11:00 PM — Jan 28 11:00 PM, Halton Hills, Weather by CustomWeather, © 2014

Note: Actual official high and low records may vary slightly from our data, if they occured in-between our weather recording intervals... More about our weather records

Advertising

Halton Hills weather history for previous 24 hours

 ConditionsComfort  
Time TempWeatherWind HumidityBarometerVisibility
11:00 PM
Jan 28
19 °FPassing clouds.3 mph58%30.28 "Hg15 mi
10:00 PM19 °FPassing clouds.6 mph53%30.30 "Hg15 mi
9:00 PM21 °FPassing clouds.6 mph49%30.30 "Hg15 mi
8:00 PM23 °FPassing clouds.6 mph42%30.32 "Hg15 mi
7:00 PM23 °FClear.5 mph42%30.33 "Hg15 mi
6:00 PM25 °FPassing clouds.5 mph42%30.32 "Hg15 mi
5:00 PM27 °FPassing clouds.7 mph43%30.31 "Hg15 mi
4:00 PM28 °FPassing clouds.5 mph40%30.31 "Hg15 mi
3:00 PM28 °FPassing clouds.3 mph29%30.30 "Hg15 mi
2:00 PM28 °FPassing clouds.2 mph34%30.30 "Hg15 mi
1:00 PM27 °FPassing clouds.6 mph36%30.33 "Hg15 mi
12:00 PM25 °FPassing clouds.9 mph42%30.35 "Hg15 mi
11:00 AM23 °FPassing clouds.15 mph46%30.35 "Hg15 mi
10:00 AM19 °FPassing clouds.9 mph68%30.34 "Hg15 mi
9:00 AM14 °FSunny.7 mph79%30.33 "Hg15 mi
8:00 AM9 °FSunny.6 mph85%30.31 "Hg15 mi
7:00 AM10 °FClear.9 mph79%30.28 "Hg15 mi
6:00 AM10 °FClear.8 mph72%30.26 "Hg15 mi
5:00 AM10 °FClear.7 mph67%30.24 "Hg15 mi
4:00 AM9 °FClear.10 mph72%30.20 "Hg15 mi
3:00 AM9 °FClear.10 mph66%30.19 "Hg15 mi
2:00 AM10 °FClear.9 mph61%30.20 "Hg15 mi
1:00 AM9 °FClear.9 mph66%30.19 "Hg15 mi
12:00 AM12 °FClear.13 mph62%30.17 "Hg15 mi
Weather by CustomWeather, © 2014

See weather overviewHow to use our weather pages